Torna al catalogo

ARIANE 5 R/B

AttivoGTO
NORAD 32389·ROCKET BODY·🇫🇷 France

Lanciato Dec 21, 2007 da Guiana Space Centre

Loading…

TLE

ObsoletoSource: Space-Track

Epoca: Sep 13, 2026, 20:43 UTC

1 32389U 07063C   26256.86357631 -.00000101  00000-0  30156-3 0  9992
2 32389   5.7690  67.5707 7122053  61.7565 351.5593  2.30596183157793

Traccia ARIANE 5 R/B in tempo reale con AllMySat

Download on the App Store